West Palm Beach, FL

4:07 PM EDT on October 22, 2019 (GMT -0400)
Palm Beach International

Weather History for KPBI - June, 2019

Change the Weather History Date:

Tuesday, June 11, 2019

  Actual Average Record
Temperature  
Mean Temperature 83 °F 81 °F  
Max Temperature 91 °F 88 °F 97 °F (1954)
Min Temperature 75 °F 74 °F 65 °F (1911)
Degree Days  
Heating Degree Days 0 0  
Month to date heating degree days 0 0  
Since 1 June heating degree days 0 0  
Since 1 July heating degree days 144 233  
Cooling Degree Days 18 16  
Month to date cooling degree days 212 175  
Year to date cooling degree days 1613 1284  
Since 1 June cooling degree days 212 175  
Growing Degree Days 33 (Base 50)    
Moisture  
Dew Point 72 °F    
Average Humidity 74    
Maximum Humidity 88    
Minimum Humidity 59    
Precipitation  
Precipitation 0.03 in 0.28 in 4.35 in (1901)
Month to date precipitation 2.91 2.98  
Year to date precipitation 23.92 21.69  
Snow  
Snow 0.00 in - - ()
Month to date snowfall 0.0  
Since 1 June snowfall 0.0  
Since 1 July snowfall 0.0  
Snow Depth 0.00 in    
Sea Level Pressure  
Sea Level Pressure 30.02 in    
Wind  
Wind Speed 5 mph (South)    
Max Wind Speed 24 mph    
Max Gust Speed 29 mph    
Visibility 10 miles    
Events Rain , Thunderstorm    
T = Trace of Precipitation, MM = Missing Value Source: NWS Daily Summary

Daily Weather History Graph

Daily Weather History Graph

Search for Another Location

Airport or City:

Astronomy

Jun. 11, 2019 Rise Set
Actual Time 6:26 AM EDT 8:13 PM EDT
Civil Twilight 6:00 AM EDT 8:40 PM EDT
Nautical Twilight 5:28 AM EDT 9:11 PM EDT
Astronomical Twilight 4:55 AM EDT 9:44 PM EDT
Moon 2:47 PM EDT (6/11) 2:29 AM EDT (6/11)
Length of Visible Light 14h 39m
Length of Day
13h 47m
Waxing Gibbous, 66% of the Moon is Illuminated
Jun 11
Waxing Gibbous
Jun 17
Full
Jun 25
Last Quarter
Jul 2
New
Jul 9
First Quarter

Hourly Weather History & Observations

Time (EDT) Temp. Heat Index Dew Point Humidity Pressure Visibility Wind Dir Wind Speed Gust Speed Precip Events Conditions
12:53 AM 78.1 °F - 72.0 °F 81% 30.04 in 10.0 mi Calm Calm - N/A   Partly Cloudy
1:53 AM 75.9 °F - 72.0 °F 87% 30.02 in 10.0 mi Calm Calm - N/A   Partly Cloudy
2:53 AM 77.0 °F - 72.0 °F 84% 30.01 in 10.0 mi SSE 3.5 mph - N/A   Partly Cloudy
3:53 AM 77.0 °F - 71.1 °F 82% 30.00 in 10.0 mi Calm Calm - N/A   Partly Cloudy
4:53 AM 75.9 °F - 71.1 °F 85% 30.01 in 10.0 mi Calm Calm - N/A   Partly Cloudy
5:53 AM 75.9 °F - 72.0 °F 87% 30.02 in 10.0 mi Calm Calm - N/A   Partly Cloudy
6:53 AM 77.0 °F - 73.0 °F 88% 30.02 in 10.0 mi Calm Calm - N/A   Mostly Cloudy
7:53 AM 80.1 °F 84.5 °F 73.9 °F 81% 30.04 in 10.0 mi South 4.6 mph - N/A   Scattered Clouds
8:53 AM 82.9 °F 90.2 °F 75.0 °F 77% 30.06 in 10.0 mi SW 6.9 mph - N/A   Scattered Clouds
9:53 AM 84.9 °F 92.1 °F 73.9 °F 69% 30.06 in 10.0 mi SSE 5.8 mph - N/A   Scattered Clouds
10:53 AM 87.1 °F 95.4 °F 73.9 °F 65% 30.05 in 10.0 mi Calm Calm - N/A   Scattered Clouds
11:53 AM 90.0 °F 99.0 °F 73.9 °F 59% 30.04 in 10.0 mi SSE 8.1 mph - N/A   Scattered Clouds
12:53 PM 90.0 °F 99.0 °F 73.9 °F 59% 30.03 in 10.0 mi SSE 10.4 mph - N/A   Mostly Cloudy
1:53 PM 90.0 °F 97.9 °F 73.0 °F 57% 30.01 in 10.0 mi SE 15.0 mph - N/A   Scattered Clouds
2:15 PM 91.0 °F 100.4 °F 73.9 °F 57% 30.00 in 10.0 mi SE 17.3 mph - N/A Thunderstorm Thunderstorm
2:53 PM 90.0 °F 97.9 °F 73.0 °F 57% 29.99 in 10.0 mi SE 16.1 mph - N/A Thunderstorm Thunderstorm
3:53 PM 81.0 °F 83.3 °F 66.9 °F 62% 30.01 in 10.0 mi West 11.5 mph - N/A Thunderstorm Thunderstorm
4:53 PM 80.1 °F 82.3 °F 66.9 °F 64% 30.03 in 10.0 mi SW 13.8 mph 19.6 mph N/A Thunderstorm Thunderstorm
5:14 PM 79.0 °F - 69.1 °F 72% 30.01 in 10.0 mi WSW 6.9 mph - N/A   Mostly Cloudy
5:39 PM 79.0 °F - 69.1 °F 72% 30.00 in 10.0 mi South 9.2 mph - N/A Thunderstorm Thunderstorm
5:53 PM 78.1 °F - 70.0 °F 76% 30.00 in 9.0 mi South 10.4 mph - 0.00 in Rain , Thunderstorm Light Thunderstorms and Rain
6:13 PM 78.1 °F - 70.0 °F 76% 29.99 in 10.0 mi South 8.1 mph - 0.01 in   Mostly Cloudy
6:53 PM 79.0 °F - 70.0 °F 74% 29.99 in 10.0 mi Calm Calm - 0.03 in   Mostly Cloudy
7:53 PM 80.1 °F 83.2 °F 70.0 °F 71% 30.01 in 10.0 mi Calm Calm - N/A   Mostly Cloudy
8:53 PM 81.0 °F 84.9 °F 71.1 °F 72% 30.02 in 10.0 mi Calm Calm - N/A   Mostly Cloudy
9:53 PM 80.1 °F 83.8 °F 72.0 °F 76% 30.03 in 10.0 mi SSE 4.6 mph - N/A   Scattered Clouds
10:53 PM 81.0 °F 85.8 °F 73.0 °F 77% 30.04 in 10.0 mi South 4.6 mph - N/A   Partly Cloudy
11:53 PM 80.1 °F 84.5 °F 73.9 °F 81% 30.04 in 10.0 mi Calm Calm - N/A   Partly Cloudy